Big Rapids, MI

10:01 AM EST on January 20, 2018 (GMT -0500)
Roben-Hood

Weather History for KRQB - February, 2013

Change the Weather History Date:

Tuesday, February 12, 2013

  Actual Average Record
Temperature  
Mean Temperature 24 °F -  
Max Temperature 30 °F 31 °F 50 °F (1984)
Min Temperature 18 °F 8 °F -14 °F (2000)
Degree Days  
Heating Degree Days 40    
Moisture  
Dew Point 20 °F    
Average Humidity 72    
Maximum Humidity 93    
Minimum Humidity 64    
Precipitation  
Precipitation 0.00 in - - ()
Sea Level Pressure  
Sea Level Pressure 29.91 in    
Wind  
Wind Speed 10 mph (West)    
Max Wind Speed 16 mph    
Max Gust Speed 23 mph    
Visibility 10 miles    
Events Snow    
Averages and records for this station are not official NWS values.
T = Trace of Precipitation, MM = Missing Value Source: NWS Daily Summary

Daily Weather History Graph

Daily Weather History Graph

Search for Another Location

Airport or City:

Trip Planner

Search our weather history database for the weather conditions in past years. The results will help you decide how hot, cold, wet, or windy it might be!

Date:

Astronomy

Feb. 12, 2013 Rise Set
Actual Time 7:44 AM EST 6:08 PM EST
Civil Twilight 7:14 AM EST 6:38 PM EST
Nautical Twilight 6:41 AM EST 7:11 PM EST
Astronomical Twilight 6:07 AM EST 7:45 PM EST
Moon 8:34 AM EST (2/12) 9:16 PM EST (2/12)
Length of Visible Light 11h 23m
Length of Day
10h 23m
Waxing Crescent, 7% of the Moon is Illuminated
Feb 12
Waxing Crescent
Feb 17
First Quarter
Feb 25
Full
Mar 4
Last Quarter
Mar 11
New

Hourly Weather History & Observations

Time (EST) Temp. Windchill Dew Point Humidity Pressure Visibility Wind Dir Wind Speed Gust Speed Precip Events Conditions
12:05 AM 30.9 °F 19.8 °F 23.4 °F 74% 29.80 in 10.0 mi West 16.1 mph 23.0 mph N/A   Overcast
12:35 AM 30.2 °F 20.2 °F 23.0 °F 75% 29.82 in 10.0 mi West 12.7 mph 19.6 mph N/A   Overcast
2:05 AM 29.7 °F 19.6 °F 23.0 °F 76% 29.85 in 4.0 mi West 12.7 mph 18.4 mph N/A Snow Light Snow
2:14 AM 29.7 °F 20.7 °F 23.0 °F 76% 29.86 in 5.0 mi West 10.4 mph 16.1 mph N/A Snow Light Snow
2:34 AM 29.3 °F 18.6 °F 23.0 °F 77% 29.86 in 7.0 mi West 13.8 mph 17.3 mph N/A Snow Light Snow
2:54 AM 29.3 °F 21.5 °F 22.8 °F 77% 29.87 in 5.0 mi West 8.1 mph - N/A Snow Light Snow
3:14 AM 29.3 °F 20.8 °F 22.8 °F 77% 29.87 in 10.0 mi WNW 9.2 mph - N/A Snow Light Snow
3:34 AM 29.3 °F 20.8 °F 22.5 °F 76% 29.88 in 10.0 mi WNW 9.2 mph - N/A Snow Light Snow
3:54 AM 29.3 °F 20.2 °F 22.1 °F 75% 29.88 in 10.0 mi West 10.4 mph - N/A   Overcast
4:14 AM 29.3 °F 19.1 °F 20.5 °F 70% 29.89 in 10.0 mi West 12.7 mph - N/A Snow Light Snow
4:34 AM 29.3 °F 19.1 °F 21.2 °F 72% 29.89 in 10.0 mi WNW 12.7 mph 19.6 mph N/A Snow Light Snow
4:54 AM 29.3 °F 17.7 °F 20.1 °F 69% 29.90 in 10.0 mi West 16.1 mph 20.7 mph N/A Snow Light Snow
5:14 AM 28.9 °F 18.6 °F 18.7 °F 66% 29.91 in 10.0 mi West 12.7 mph 20.7 mph N/A Snow Light Snow
5:34 AM 28.9 °F 17.7 °F 18.0 °F 64% 29.92 in 10.0 mi WNW 15.0 mph 21.9 mph N/A   Overcast
5:54 AM 28.8 °F 18.4 °F 18.1 °F 65% 29.92 in 10.0 mi WNW 12.7 mph 17.3 mph N/A   Overcast
6:14 AM 28.4 °F 19.1 °F 18.5 °F 66% 29.93 in 10.0 mi WNW 10.4 mph - N/A   Overcast
6:34 AM 28.4 °F 19.1 °F 18.1 °F 65% 29.94 in 10.0 mi WNW 10.4 mph 16.1 mph N/A   Overcast
6:54 AM 28.6 °F 22.4 °F 18.0 °F 64% 29.94 in 10.0 mi West 5.8 mph - N/A   Overcast
7:14 AM 28.4 °F 21.2 °F 18.9 °F 67% 29.95 in 10.0 mi West 6.9 mph - N/A Snow Light Snow
7:34 AM 28.2 °F 23.1 °F 19.4 °F 70% 29.95 in 10.0 mi West 4.6 mph - N/A Snow Light Snow
7:54 AM 28.4 °F 21.2 °F 20.1 °F 71% 29.95 in 10.0 mi West 6.9 mph - N/A   Overcast
8:14 AM 28.9 °F 21.9 °F 20.5 °F 71% 29.95 in 10.0 mi WNW 6.9 mph - N/A   Overcast
8:34 AM 29.1 °F 21.3 °F 20.3 °F 70% 29.95 in 10.0 mi WNW 8.1 mph - N/A   Overcast
8:54 AM 29.3 °F 22.3 °F 20.7 °F 70% 29.96 in 10.0 mi WNW 6.9 mph - N/A   Overcast
9:14 AM 29.3 °F 23.2 °F 21.0 °F 71% 29.96 in 10.0 mi West 5.8 mph - N/A   Overcast
9:34 AM 29.3 °F 21.5 °F 20.8 °F 71% 29.96 in 10.0 mi West 8.1 mph 16.1 mph N/A   Overcast
9:54 AM 29.3 °F 20.2 °F 20.8 °F 71% 29.96 in 10.0 mi West 10.4 mph - N/A   Overcast
10:14 AM 29.3 °F 20.8 °F 20.7 °F 70% 29.96 in 10.0 mi West 9.2 mph 16.1 mph N/A   Overcast
10:34 AM 29.3 °F 22.3 °F 21.0 °F 71% 29.96 in 10.0 mi West 6.9 mph - N/A   Overcast
10:54 AM 29.3 °F 20.8 °F 20.8 °F 71% 29.97 in 10.0 mi West 9.2 mph - N/A   Overcast
11:14 AM 29.1 °F 21.3 °F 20.3 °F 70% 29.97 in 10.0 mi WSW 8.1 mph 17.3 mph N/A   Overcast
11:34 AM 28.9 °F 20.4 °F 20.3 °F 70% 29.96 in 10.0 mi West 9.2 mph - N/A   Overcast
11:54 AM 29.3 °F 20.8 °F 20.7 °F 70% 29.96 in 10.0 mi West 9.2 mph - N/A   Overcast
12:13 PM 29.1 °F 20.6 °F 19.9 °F 69% 29.95 in 10.0 mi West 9.2 mph - N/A   Overcast
12:34 PM 29.3 °F 23.2 °F 20.3 °F 69% 29.95 in 7.0 mi West 5.8 mph - N/A Snow Light Snow
12:54 PM 29.3 °F 20.8 °F 20.7 °F 70% 29.95 in 10.0 mi West 9.2 mph - N/A   Overcast
1:14 PM 29.3 °F 25.6 °F 21.0 °F 71% 29.94 in 10.0 mi West 3.5 mph - N/A   Overcast
1:34 PM 29.1 °F 22.1 °F 21.6 °F 73% 29.94 in 7.0 mi WSW 6.9 mph - N/A   Overcast
1:53 PM 28.8 °F 19.0 °F 20.7 °F 72% 29.93 in 10.0 mi SW 11.5 mph 16.1 mph N/A   Overcast
2:14 PM 28.8 °F 19.5 °F 19.9 °F 70% 29.91 in 10.0 mi West 10.4 mph - N/A   Overcast
2:33 PM 28.4 °F 19.1 °F 19.9 °F 71% 29.90 in 10.0 mi West 10.4 mph 16.1 mph N/A   Overcast
2:54 PM 28.2 °F 16.8 °F 20.3 °F 72% 29.90 in 10.0 mi WNW 15.0 mph 19.6 mph N/A   Overcast
3:14 PM 28.0 °F 19.3 °F 19.8 °F 71% 29.89 in 10.0 mi West 9.2 mph 18.4 mph N/A   Overcast
3:34 PM 27.9 °F 18.4 °F 19.9 °F 72% 29.90 in 10.0 mi West 10.4 mph - N/A   Overcast
3:54 PM 27.5 °F 19.3 °F 19.9 °F 73% 29.89 in 10.0 mi West 8.1 mph - N/A   Overcast
4:13 PM 27.5 °F 21.1 °F 19.4 °F 72% 29.90 in 10.0 mi West 5.8 mph - N/A   Overcast
4:34 PM 27.5 °F 21.1 °F 18.9 °F 70% 29.90 in 10.0 mi West 5.8 mph - N/A   Overcast
4:54 PM 27.1 °F 20.7 °F 19.2 °F 72% 29.91 in 10.0 mi WSW 5.8 mph - N/A   Overcast
5:14 PM 26.6 °F 17.5 °F 18.7 °F 72% 29.91 in 10.0 mi WSW 9.2 mph - N/A   Overcast
5:34 PM 26.4 °F 19.8 °F 18.1 °F 71% 29.91 in 10.0 mi West 5.8 mph - N/A   Overcast
5:54 PM 26.1 °F 17.6 °F 17.1 °F 69% 29.91 in 10.0 mi WSW 8.1 mph - N/A   Overcast
6:14 PM 25.7 °F 17.1 °F 16.9 °F 69% 29.91 in 10.0 mi West 8.1 mph 16.1 mph N/A   Overcast
6:34 PM 25.7 °F 17.1 °F 17.2 °F 70% 29.91 in 10.0 mi West 8.1 mph - N/A   Overcast
6:54 PM 25.7 °F 16.4 °F 16.7 °F 69% 29.92 in 10.0 mi WSW 9.2 mph - N/A   Overcast
7:14 PM 25.7 °F 17.1 °F 16.7 °F 69% 29.92 in 10.0 mi West 8.1 mph - N/A   Overcast
7:34 PM 25.7 °F 19.0 °F 17.1 °F 70% 29.91 in 10.0 mi WSW 5.8 mph - N/A   Overcast
7:54 PM 25.7 °F 19.0 °F 17.6 °F 71% 29.91 in 10.0 mi WSW 5.8 mph - N/A   Overcast
8:14 PM 25.7 °F 20.1 °F 17.8 °F 72% 29.90 in 10.0 mi WSW 4.6 mph - N/A   Overcast
8:34 PM 25.7 °F 21.5 °F 18.0 °F 73% 29.90 in 10.0 mi WSW 3.5 mph - N/A   Overcast
8:53 PM 25.7 °F 21.5 °F 18.1 °F 73% 29.90 in 10.0 mi WSW 3.5 mph - N/A   Overcast
9:14 PM 25.9 °F 20.3 °F 18.3 °F 73% 29.90 in 10.0 mi SSW 4.6 mph - N/A   Overcast
9:34 PM 26.1 °F - 18.5 °F 73% 29.90 in 10.0 mi Calm Calm - N/A   Overcast
9:53 PM 26.1 °F - 18.7 °F 74% 29.89 in 10.0 mi Calm Calm - N/A   Overcast
10:14 PM 25.7 °F - 18.9 °F 75% 29.87 in 10.0 mi Calm Calm - N/A   Overcast
10:34 PM 25.2 °F - 18.5 °F 76% 29.86 in 10.0 mi Calm Calm - N/A   Mostly Cloudy
10:53 PM 23.9 °F - 18.3 °F 79% 29.87 in 10.0 mi Calm Calm - N/A   Scattered Clouds
11:14 PM 22.1 °F - 17.8 °F 83% 29.86 in 10.0 mi Calm Calm - N/A   Scattered Clouds
11:34 PM 19.2 °F - 16.3 °F 89% 29.86 in 10.0 mi Calm Calm - N/A   Scattered Clouds
11:54 PM 18.3 °F - 16.7 °F 93% 29.85 in 10.0 mi Calm Calm - N/A   Overcast